Orbital Elements at Epoch 2459000.5 (2020-May-31.0) TDB
Reference: JPL 16 (heliocentric ecliptic J2000)
Element | Value | Uncertainty (1-sigma) | Units |
e | .1367064154189929 | 7.0974e-08 | |
a | 2.607577207011507 | 2.3089e-08 | au |
q | 2.251104674112694 | 1.9671e-07 | au |
i | 5.168615694994526 | 5.4114e-06 | deg |
node | 118.5972711579732 | 5.466e-05 | deg |
peri | 73.79264437289132 | 5.839e-05 | deg |
M | 335.3288837077261 | 2.1579e-05 | deg |
tp | 2459105.899970861973 (2020-Sep-13.39997086) | 9.2978e-05 | TDB |
period | 1537.992406212805 4.21 | 2.0428e-05 5.593e-08 | d yr |
n | .2340713767803795 | 3.109e-09 | deg/d |
Q | 2.964049739910319 | 2.6246e-08 | au |
|
| | Orbit Determination Parameters
Additional Information
|